CW5066 Weather Reports


time (UTC)temp
F
wind
direction
speed
knots
gust
knots
rain 1hr
in
rain 24hr
in
rain mn
in
humidity
%
barometer
mb
20260903074515 54 68 1.7 3.5 0.00 0.00 0.00 49 1026.4
20260903073515 54 45 0.9 1.7 0.00 0.00 0.00 49 1026.5
20260903072515 56 270 0.9 4.3 0.00 0.00 0.00 47 1027.1
20260903071536 55 203 3.5 6.1 0.00 0.00 0.00 46 1027.0
20260903070515 56 203 5.2 7.8 0.00 0.00 0.00 46 1027.2
20260903065535 56 180 2.6 4.3 0.00 0.00 0.00 46 1026.1
20260903064515 57 225 0.9 6.1 0.00 0.00 0.00 45 1026.8
20260903063515 57 180 0.9 2.6 0.00 0.00 0.00 46 1027.0
20260903062537 58 0.0 3.5 0.00 0.00 0.00 45 1027.4
20260903061517 58 225 0.9 1.7 0.00 0.00 0.00 45 1027.5
20260903060517 57 248 0.9 0.9 0.00 0.00 0.00 46 1027.5
20260903055516 57 0.0 1.7 0.00 0.00 0.00 47 1026.8
20260903054516 57 0.0 0.0 0.00 0.00 0.00 48 1026.9
20260903053516 58 180 0.9 1.7 0.00 0.00 0.00 48 1026.2
20260903052516 58 270 0.9 2.6 0.00 0.00 0.00 48 1026.9
20260903051516 58 203 1.7 4.3 0.00 0.00 0.00 47 1026.9
20260903050536 58 180 3.5 6.1 0.00 0.00 0.00 49 1026.6
20260903045515 57 158 1.7 2.6 0.00 0.00 0.00 50 1026.6
20260903044515 57 158 1.7 3.5 0.00 0.00 0.00 50 1026.7
20260903043516 58 203 0.9 2.6 0.00 0.00 0.00 50 1026.9
20260903042536 58 180 1.7 2.6 0.00 0.00 0.00 49 1026.8
20260903041515 58 180 2.6 3.5 0.00 0.00 0.00 49 1027.0
20260903040515 59 180 2.6 4.3 0.00 0.00 0.00 48 1026.5
20260903035516 58 203 2.6 3.5 0.00 0.00 0.00 48 1026.3
20260903034516 58 203 0.9 2.6 0.00 0.00 0.00 48 1026.2
20260903033515 58 203 0.9 1.7 0.00 0.00 0.00 48 1026.1
20260903032535 58 0.0 1.7 0.00 0.00 0.00 48 1026.0
20260903031516 58 270 0.9 1.7 0.00 0.00 0.00 49 1025.9
20260903030535 57 0.0 1.7 0.00 0.00 0.00 51 1024.7
20260903025536 57 293 0.9 2.6 0.00 0.00 0.00 54 1025.0
20260903024515 57 315 0.9 2.6 0.00 0.00 0.00 53 1024.8
20260903023515 57 248 0.9 1.7 0.00 0.00 0.00 54 1024.2
20260903022535 56 248 0.9 1.7 0.00 0.00 0.00 55 1024.2
20260903021515 57 0.0 1.7 0.00 0.00 0.00 57 1024.2
20260903020515 58 225 0.9 2.6 0.00 0.00 0.00 54 1023.9
20260903015517 58 203 0.9 1.7 0.00 0.00 0.00 54 1023.8
20260903014537 58 338 1.7 3.5 0.00 0.00 0.00 55 1023.7
20260903013517 58 158 0.9 3.5 0.00 0.00 0.00 53 1023.1
20260903012517 58 135 0.9 1.7 0.00 0.00 0.00 55 1023.2
20260903011517 58 203 0.9 1.7 0.00 0.00 0.00 55 1023.3
20260903010517 59 0.0 1.7 0.00 0.00 0.00 53 1023.7
20260903005517 59 0.0 1.7 0.00 0.00 0.00 53 1023.7
20260903004517 60 203 0.9 1.7 0.00 0.00 0.00 50 1023.4
20260903003517 60 0.0 2.6 0.00 0.00 0.00 50 1024.2
20260903002517 60 293 0.9 3.5 0.00 0.00 0.00 51 1024.1
20260903001517 61 0.0 1.7 0.00 0.00 0.00 51 1024.2
20260903000517 61 0.0 0.0 0.00 0.00 0.00 49 1024.5
20260902235517 62 0.0 1.7 0.00 0.00 0.00 48 1024.8
20260902234517 63 0 3.5 7.8 0.00 0.00 0.00 45 1024.4
20260902233517 64 0 0.9 4.3 0.00 0.00 0.00 45 1024.1
20260902232537 63 338 2.6 7.0 0.00 0.00 0.00 47 1024.4
20260902231517 62 293 6.1 13.0 0.00 0.00 0.00 49 1024.1
20260902230537 62 270 5.2 11.3 0.00 0.00 0.00 49 1024.1
20260902225517 62 293 3.5 6.1 0.00 0.00 0.00 46 1023.8
20260902224517 61 293 2.6 6.1 0.00 0.00 0.00 47 1024.1
20260902223537 60 203 7.8 17.4 0.00 0.00 0.00 49 1024.2
20260902222516 62 203 8.7 23.5 0.00 0.00 0.00 42 1024.7
20260902221536 63 203 7.8 18.2 0.00 0.00 0.00 39 1024.9
20260902220516 66 113 0.9 4.3 0.00 0.00 0.00 40 1026.1
20260902215516 66 23 0.9 4.3 0.00 0.00 0.00 40 1025.7
20260902214516 67 113 2.6 7.0 0.00 0.00 0.00 36 1026.3
20260902213517 67 90 2.6 8.7 0.00 0.00 0.00 37 1025.8
20260902212537 67 113 1.7 5.2 0.00 0.00 0.00 37 1026.0
20260902211516 67 0.0 2.6 0.00 0.00 0.00 36 1025.9
20260902210516 67 68 0.9 3.5 0.00 0.00 0.00 37 1026.3
20260902205536 67 113 1.7 3.5 0.00 0.00 0.00 36 1026.3
20260902204516 68 113 1.7 6.1 0.00 0.00 0.00 35 1026.5
20260902203517 68 113 0.9 4.3 0.00 0.00 0.00 36 1027.2
20260902202556 68 180 2.6 7.8 0.00 0.00 0.00 33 1027.0
20260902201516 67 0.0 1.7 0.00 0.00 0.00 34 1027.3
20260902200516 68 158 1.7 7.0 0.00 0.00 0.00 33 1027.8
20260902195516 69 158 1.7 7.0 0.00 0.00 0.00 31 1027.9
20260902194517 70 180 2.6 8.7 0.00 0.00 0.00 31 1028.5
20260902193516 70 135 3.5 9.6 0.00 0.00 0.00 31 1027.9
20260902192516 69 158 3.5 9.6 0.00 0.00 0.00 33 1028.2
20260902191516 71 180 1.7 7.0 0.00 0.00 0.00 32 1028.9
20260902190516 69 135 2.6 7.0 0.00 0.00 0.00 33 1028.9
20260902185516 66 90 1.7 5.2 0.00 0.00 0.00 39 1028.1
20260902184516 65 113 1.7 6.1 0.00 0.00 0.00 37 1028.3
20260902183536 65 113 1.7 5.2 0.00 0.00 0.00 36 1028.5
20260902182516 65 158 2.6 7.8 0.00 0.00 0.00 31 1028.3
20260902181516 65 180 4.3 8.7 0.00 0.00 0.00 31 1028.3
20260902180536 67 158 4.3 11.3 0.00 0.00 0.00 30 1029.3
20260902175516 66 180 4.3 10.4 0.00 0.00 0.00 31 1029.0
20260902174516 66 248 3.5 7.8 0.00 0.00 0.00 31 1029.0
20260902173516 65 225 4.3 11.3 0.00 0.00 0.00 32 1028.6
20260902172516 65 203 7.0 19.1 0.00 0.00 0.00 33 1028.9
20260902171536 64 203 5.2 11.3 0.00 0.00 0.00 35 1028.8
20260902170515 64 180 7.8 13.0 0.00 0.00 0.00 34 1028.3
20260902165516 63 225 6.1 13.9 0.00 0.00 0.00 34 1028.1
20260902164535 64 225 7.0 13.9 0.00 0.00 0.00 35 1028.3
20260902163516 63 225 5.2 13.0 0.00 0.00 0.00 37 1028.2
20260902162516 62 225 7.0 11.3 0.00 0.00 0.00 37 1028.0
20260902161515 63 203 8.7 13.9 0.00 0.00 0.00 37 1027.9
20260902160516 62 203 7.8 14.8 0.00 0.00 0.00 37 1028.0
20260902155515 62 225 7.0 12.2 0.00 0.00 0.00 38 1028.1
20260902154515 61 225 5.2 11.3 0.00 0.00 0.00 41 1028.2
20260902153516 61 225 5.2 9.6 0.00 0.00 0.00 40 1028.1
20260902152515 61 225 5.2 12.2 0.00 0.00 0.00 40 1028.0
20260902151515 60 225 7.8 16.5 0.00 0.00 0.00 41 1028.2
20260902150515 60 203 7.8 17.4 0.00 0.00 0.00 41 1027.9
20260902145515 59 225 4.3 8.7 0.00 0.00 0.00 43 1028.0
20260902144515 58 225 2.6 6.1 0.00 0.00 0.00 43 1027.3
20260902143535 57 180 2.6 7.0 0.00 0.00 0.00 44 1027.4
20260902142515 56 158 2.6 7.0 0.00 0.00 0.00 44 1027.3
20260902141515 56 203 2.6 7.0 0.00 0.00 0.00 44 1027.3
20260902140535 55 203 3.5 7.8 0.00 0.00 0.00 45 1027.3
20260902135515 55 203 5.2 7.8 0.00 0.00 0.00 45 1027.4
20260902134517 54 180 5.2 10.4 0.00 0.00 0.00 45 1026.7
20260902133517 54 203 4.3 9.6 0.00 0.00 0.00 46 1027.9
20260902132537 53 203 4.3 7.8 0.00 0.00 0.00 46 1027.9
20260902131517 53 225 1.7 4.3 0.00 0.00 0.00 46 1027.8
20260902130537 53 203 1.7 3.5 0.00 0.00 0.00 46 1027.8
20260902125517 54 225 2.6 5.2 0.00 0.00 0.00 46 1027.9
20260902124517 53 203 1.7 3.5 0.00 0.00 0.00 47 1027.8
20260902123517 53 225 1.7 2.6 0.00 0.00 0.00 47 1027.7
20260902122517 54 203 5.2 7.8 0.00 0.00 0.00 46 1027.6
20260902121517 54 203 4.3 8.7 0.00 0.00 0.00 46 1027.6
20260902120537 55 225 7.0 11.3 0.00 0.00 0.00 43 1028.5
20260902115557 55 225 7.8 11.3 0.00 0.00 0.00 43 1028.4
20260902114517 54 225 9.6 15.6 0.00 0.00 0.00 47 1027.7
20260902113517 53 225 5.2 10.4 0.00 0.00 0.00 52 1028.5
20260902112516 52 225 7.0 13.0 0.00 0.00 0.00 55 1027.9
20260902111537 51 225 5.2 10.4 0.00 0.00 0.00 56 1028.0
20260902110516 51 225 4.3 8.7 0.00 0.00 0.00 55 1027.5
20260902105516 52 248 5.2 10.4 0.00 0.00 0.00 53 1028.0
20260902104517 52 248 5.2 8.7 0.00 0.00 0.00 51 1028.1
20260902103536 53 225 5.2 8.7 0.00 0.00 0.00 51 1028.0
20260902102516 53 248 3.5 7.0 0.00 0.00 0.00 53 1028.1
20260902101516 53 225 2.6 4.3 0.00 0.00 0.00 54 1028.3
20260902100517 54 225 1.7 3.5 0.00 0.00 0.00 54 1028.4
20260902095517 54 203 1.7 2.6 0.00 0.00 0.00 54 1028.5
20260902094516 55 203 1.7 1.7 0.00 0.00 0.00 53 1028.7
20260902093516 55 180 1.7 5.2 0.00 0.00 0.00 53 1028.2
20260902092517 55 180 2.6 6.1 0.00 0.00 0.00 54 1028.2
20260902091517 54 180 1.7 3.5 0.00 0.00 0.00 55 1028.3
20260902090516 54 203 2.6 4.3 0.00 0.00 0.00 56 1027.2
20260902085517 53 180 3.5 6.1 0.00 0.00 0.00 57 1027.2
20260902084517 53 203 0.9 1.7 0.00 0.00 0.00 57 1027.3
20260902083516 54 203 1.7 2.6 0.00 0.00 0.00 56 1028.6
20260902082537 55 180 0.9 2.6 0.00 0.00 0.00 55 1028.7
20260902081537 55 203 0.9 2.6 0.00 0.00 0.00 54 1028.8
20260902080516 56 180 1.7 3.5 0.00 0.00 0.00 53 1029.6
20260902075537 56 180 1.7 3.5 0.00 0.00 0.00 53 1029.7